EW0259 Weather Reports


time (UTC)temp
F
wind
direction
speed
knots
gust
knots
rain 1hr
in
rain 24hr
in
rain mn
in
humidity
%
barometer
mb
20260904234738 68 107 2.6 7.0 0.00 0.15 0.04 57 1015.6
20260904234225 69 97 0.9 1.7 0.01 0.15 0.04 54 1015.6
20260904233732 69 329 0.0 1.7 0.01 0.15 0.04 54 1015.6
20260904233239 69 303 0.0 1.7 0.01 0.15 0.04 53 1015.5
20260904232726 69 197 0.0 1.7 0.01 0.15 0.04 53 1015.5
20260904232238 69 284 0.0 1.7 0.01 0.15 0.04 55 1015.4
20260904231725 69 282 0.9 2.6 0.01 0.15 0.04 54 1015.4
20260904231252 69 42 0.9 2.6 0.01 0.15 0.04 53 1015.3
20260904230727 69 355 0.9 1.7 0.01 0.15 0.04 54 1015.2
20260904230234 68 146 0.0 1.7 0.01 0.15 0.04 56 1015.2
20260904225801 68 163 0.0 1.7 0.01 0.15 0.04 56 1015.2
20260904225238 68 173 0.9 2.6 0.01 0.15 0.04 57 1015.2
20260904224805 68 272 0.9 2.6 0.01 0.15 0.04 55 1015.2
20260904224301 69 304 0.0 3.5 0.00 0.14 0.03 56 1015.0
20260904223756 69 315 0.9 3.5 0.00 0.14 0.03 55 1014.9
20260904223231 69 270 0.0 3.5 0.00 0.14 0.03 56 1014.9
20260904222758 69 323 0.9 2.6 0.00 0.14 0.03 56 1014.9
20260904222726 69 323 0.9 2.6 0.00 0.14 0.03 56 1014.9
20260904222235 69 136 0.9 1.7 0.00 0.14 0.03 55 1014.9
20260904221738 69 325 0.0 2.6 0.00 0.17 0.03 58 1015.0
20260904221225 69 314 0.9 2.6 0.00 0.17 0.03 58 1015.0
20260904220752 68 315 1.7 2.6 0.00 0.17 0.03 58 1014.9
20260904220227 68 248 1.7 2.6 0.00 0.17 0.03 57 1015.0
20260904215754 69 293 1.7 4.3 0.00 0.17 0.03 55 1015.1
20260904215722 69 293 1.7 4.3 0.00 0.17 0.03 55 1015.1
20260904215229 69 309 1.7 4.3 0.00 0.17 0.03 53 1015.0
20260904214739 69 244 0.9 6.1 0.00 0.17 0.03 58 1014.9
20260904214307 69 286 2.6 6.1 0.00 0.17 0.03 55 1014.9
20260904213722 70 287 2.6 3.5 0.00 0.17 0.03 54 1014.9
20260904213310 70 312 1.7 3.5 0.00 0.17 0.03 53 1014.9
20260904212725 69 23 0.9 3.5 0.00 0.17 0.03 56 1014.7
20260904212253 69 314 1.7 3.5 0.00 0.17 0.03 56 1014.8
20260904211807 69 156 1.7 5.2 0.00 0.17 0.03 56 1014.8
20260904211735 69 156 1.7 5.2 0.00 0.17 0.03 56 1014.8
20260904211303 69 328 2.6 5.2 0.00 0.17 0.03 56 1014.7
20260904210758 69 257 0.9 3.5 0.00 0.17 0.03 57 1014.7
20260904210726 69 257 0.9 3.5 0.00 0.17 0.03 57 1014.7
20260904210232 69 262 1.7 3.5 0.00 0.17 0.03 57 1014.7
20260904205739 68 74 0.9 4.3 0.00 0.17 0.03 59 1014.7
20260904205227 68 350 1.7 4.3 0.00 0.17 0.03 58 1014.7
20260904204731 67 131 0.9 6.1 0.00 0.17 0.03 59 1014.7
20260904204230 67 249 3.5 6.1 0.00 0.17 0.03 58 1014.9
20260904203736 67 244 0.9 6.1 0.00 0.17 0.03 59 1014.8
20260904203223 67 127 0.9 6.1 0.00 0.17 0.03 59 1014.8
20260904202730 68 278 0.9 3.5 0.00 0.17 0.03 62 1014.8
20260904202259 67 170 0.0 2.6 0.00 0.17 0.03 63 1014.9
20260904201737 66 317 1.7 2.6 0.00 0.17 0.03 63 1014.8
20260904201304 66 89 0.0 2.6 0.00 0.17 0.03 63 1014.8
20260904201232 66 89 0.0 2.6 0.00 0.17 0.03 63 1014.8
20260904200739 66 170 0.9 4.3 0.00 0.17 0.03 63 1014.7
20260904200226 66 31 2.6 7.0 0.00 0.17 0.03 64 1014.9
20260904195733 65 346 1.7 8.7 0.00 0.17 0.03 67 1014.9
20260904195221 65 227 2.6 6.1 0.00 0.17 0.03 66 1014.8
20260904194727 65 252 0.9 3.5 0.00 0.17 0.03 67 1014.8
20260904194234 66 254 1.7 3.5 0.00 0.17 0.03 64 1014.9
20260904193720 66 65 0.9 3.5 0.00 0.17 0.03 66 1015.0
20260904193308 66 22 1.7 4.3 0.00 0.17 0.03 66 1014.8
20260904192723 66 35 1.7 4.3 0.00 0.17 0.03 67 1014.9
20260904192231 65 34 0.9 2.6 0.00 0.17 0.03 69 1014.8
20260904191758 64 336 0.9 5.2 0.00 0.17 0.03 69 1014.9
20260904191237 64 311 0.9 5.2 0.00 0.17 0.03 71 1014.9
20260904190722 64 331 0.9 2.6 0.00 0.17 0.03 71 1014.9
20260904190228 63 317 0.0 3.5 0.00 0.17 0.03 74 1015.1
20260904185735 63 247 2.6 3.5 0.00 0.17 0.03 73 1015.1
20260904185223 63 264 0.9 3.5 0.00 0.17 0.03 72 1014.9
20260904184809 63 244 1.7 3.5 0.00 0.17 0.03 73 1015.0
20260904184224 63 252 1.7 3.5 0.00 0.17 0.03 74 1014.9
20260904183731 63 202 0.9 3.5 0.00 0.17 0.03 75 1014.8
20260904183238 63 271 0.9 2.6 0.00 0.17 0.03 74 1014.8
20260904182724 62 121 0.9 2.6 0.00 0.17 0.03 77 1014.8
20260904182312 61 295 1.7 2.6 0.00 0.17 0.03 76 1014.8
20260904181726 62 223 1.7 2.6 0.00 0.17 0.03 79 1014.8
20260904181237 62 268 0.9 2.6 0.00 0.17 0.03 77 1014.9
20260904180739 61 283 1.7 2.6 0.00 0.17 0.03 78 1014.8
20260904180226 61 256 0.0 2.6 0.00 0.17 0.03 79 1014.8
20260904175754 61 258 1.7 3.5 0.00 0.17 0.03 80 1014.8
20260904175230 61 282 1.7 3.5 0.00 0.17 0.03 80 1014.8
20260904174736 61 248 0.9 3.5 0.01 0.17 0.03 82 1014.7
20260904174223 60 163 0.0 1.7 0.01 0.17 0.03 82 1014.8
20260904173729 60 131 0.9 1.7 0.01 0.17 0.03 83 1014.9
20260904173236 59 173 0.0 2.6 0.01 0.17 0.03 85 1014.9
20260904172803 59 270 1.7 2.6 0.01 0.17 0.03 83 1014.9
20260904172732 59 270 1.7 2.6 0.01 0.17 0.03 83 1014.9
20260904172239 59 252 1.7 2.6 0.01 0.17 0.03 84 1015.0
20260904171725 59 94 0.9 1.7 0.01 0.17 0.03 87 1014.9
20260904171236 58 78 0.9 1.7 0.01 0.17 0.03 87 1014.9
20260904170723 58 100 0.0 0.9 0.01 0.17 0.03 87 1014.8
20260904170230 58 42 0.0 0.0 0.01 0.17 0.03 88 1014.8
20260904165737 57 42 0.0 0.0 0.01 0.17 0.03 88 1014.8
20260904165225 57 106 0.0 0.0 0.00 0.16 0.02 89 1014.8
20260904164733 57 106 0.0 0.0 0.00 0.16 0.02 89 1014.7
20260904164238 57 106 0.0 0.0 0.00 0.16 0.02 89 1014.7
20260904163725 56 106 0.0 0.0 0.00 0.16 0.02 89 1014.6
20260904163232 56 106 0.0 0.0 0.00 0.16 0.02 90 1014.6
20260904162800 56 106 0.0 0.0 0.00 0.16 0.02 90 1014.7
20260904162257 56 106 0.0 0.0 0.00 0.16 0.02 89 1014.6
20260904161731 56 106 0.0 0.0 0.00 0.16 0.02 92 1014.6
20260904161257 56 106 0.0 0.0 0.00 0.16 0.02 93 1014.6
20260904160731 55 106 0.0 0.0 0.00 0.16 0.02 93 1014.5
20260904160238 55 106 0.0 0.0 0.00 0.16 0.02 92 1014.5
20260904155725 55 106 0.0 0.0 0.00 0.16 0.02 92 1014.6
20260904155230 55 106 0.0 0.0 0.00 0.16 0.02 93 1014.6
20260904154735 55 106 0.0 0.0 0.00 0.16 0.02 91 1014.6
20260904154222 55 106 0.0 0.0 0.00 0.16 0.02 93 1014.6
20260904153729 54 106 0.0 0.0 0.00 0.16 0.02 93 1014.5
20260904153236 54 106 0.0 0.0 0.00 0.16 0.02 94 1014.4
20260904152723 54 106 0.0 0.0 0.00 0.16 0.02 94 1014.3
20260904152231 54 105 0.0 1.7 0.00 0.16 0.02 94 1014.3
20260904151721 54 111 0.9 1.7 0.00 0.16 0.02 95 1014.3
20260904151228 54 105 0.0 1.7 0.00 0.16 0.02 96 1014.1
20260904150735 54 144 0.0 1.7 0.00 0.16 0.02 96 1014.2
20260904150222 54 126 0.0 0.0 0.00 0.16 0.02 96 1014.1
20260904145729 54 200 0.0 0.0 0.00 0.16 0.02 96 1014.1
20260904145237 54 232 0.0 0.0 0.00 0.16 0.02 96 1014.0
20260904144803 53 232 0.0 0.0 0.00 0.16 0.02 96 1013.9
20260904144238 52 233 0.0 0.0 0.00 0.16 0.02 96 1013.9
20260904143725 52 233 0.0 0.0 0.00 0.16 0.02 96 1013.8
20260904143252 52 232 0.0 0.0 0.00 0.16 0.02 96 1013.8
20260904142807 51 233 0.0 0.0 0.01 0.16 0.02 96 1013.8
20260904142735 51 233 0.0 0.0 0.01 0.16 0.02 96 1013.8
20260904142223 51 233 0.0 0.0 0.01 0.16 0.02 96 1013.9
20260904141729 51 233 0.0 0.0 0.01 0.19 0.02 96 1013.8
20260904141256 51 233 0.0 0.0 0.01 0.19 0.02 96 1013.8
20260904141224 51 233 0.0 0.0 0.01 0.19 0.02 96 1013.8
20260904140811 51 232 0.0 0.0 0.01 0.19 0.02 95 1013.6
20260904140739 51 232 0.0 0.0 0.01 0.19 0.02 95 1013.6
20260904140230 51 232 0.0 0.0 0.01 0.19 0.02 95 1013.6
20260904135737 51 233 0.0 0.0 0.01 0.19 0.02 95 1013.5
20260904135225 51 232 0.0 0.0 0.01 0.19 0.02 95 1013.4
20260904134731 51 233 0.0 0.0 0.01 0.19 0.02 95 1013.4
20260904134238 51 232 0.0 0.0 0.01 0.19 0.02 96 1013.3
20260904133725 51 233 0.0 0.0 0.01 0.19 0.02 96 1013.3
20260904133232 51 232 0.0 0.0 0.01 0.19 0.02 96 1013.2
20260904132739 51 233 0.0 0.0 0.00 0.18 0.01 95 1013.1
20260904132307 51 233 0.0 0.0 0.00 0.18 0.01 95 1013.2
20260904132235 51 233 0.0 0.0 0.00 0.18 0.01 95 1013.2
20260904131721 51 233 0.0 0.0 0.00 0.20 0.01 95 1013.1
20260904131228 51 232 0.0 0.0 0.00 0.20 0.01 95 1013.1
20260904130739 51 232 0.0 0.0 0.00 0.20 0.01 95 1013.1
20260904130226 51 233 0.0 0.0 0.00 0.20 0.01 95 1013.1
20260904125753 51 232 0.0 0.0 0.00 0.20 0.01 95 1013.0
20260904125310 51 232 0.0 0.0 0.00 0.20 0.01 95 1013.0
20260904124724 51 233 0.0 0.0 0.00 0.20 0.01 95 1013.0
20260904124231 51 232 0.0 0.0 0.00 0.20 0.01 95 1013.0
20260904123758 51 232 0.0 0.0 0.00 0.20 0.01 95 1012.9
20260904123253 51 233 0.0 0.0 0.00 0.20 0.01 95 1013.0
20260904122728 51 233 0.0 0.0 0.00 0.20 0.01 95 1012.9
20260904122236 51 232 0.0 0.0 0.00 0.20 0.01 95 1012.8
20260904121724 51 232 0.0 0.0 0.00 0.21 0.01 95 1012.9
20260904121230 51 232 0.0 0.0 0.00 0.21 0.01 95 1012.7
20260904120737 51 232 0.0 0.0 0.00 0.21 0.01 95 1012.7
20260904120224 51 233 0.0 0.0 0.00 0.21 0.01 95 1012.6
20260904115736 51 232 0.0 0.0 0.00 0.21 0.01 95 1012.6
20260904115221 51 232 0.0 0.0 0.00 0.21 0.01 95 1012.6
20260904114727 51 232 0.0 0.0 0.00 0.21 0.01 95 1012.5
20260904114234 51 233 0.0 0.0 0.00 0.21 0.01 95 1012.4
20260904113721 52 233 0.0 0.0 0.00 0.21 0.01 95 1012.4
20260904113308 52 232 0.0 0.0 0.00 0.21 0.01 95 1012.3
20260904113236 52 232 0.0 0.0 0.00 0.21 0.01 95 1012.3
20260904112723 52 232 0.0 0.0 0.00 0.21 0.01 95 1012.3
20260904112231 52 233 0.0 0.0 0.01 0.21 0.01 95 1012.2
20260904111737 52 233 0.0 0.0 0.01 0.22 0.01 95 1012.2
20260904111224 52 233 0.0 0.0 0.01 0.22 0.01 95 1012.4
20260904110752 52 232 0.0 0.0 0.01 0.22 0.01 95 1012.3
20260904110227 52 233 0.0 0.0 0.01 0.22 0.01 95 1012.3
20260904105738 52 233 0.0 0.0 0.01 0.22 0.01 95 1012.2
20260904105225 52 233 0.0 0.0 0.01 0.22 0.01 95 1012.3
20260904104731 52 232 0.0 0.0 0.01 0.22 0.01 95 1012.3
20260904103725 52 232 0.0 0.0 0.01 0.22 0.01 95 1012.2
20260904103232 52 232 0.0 0.0 0.01 0.22 0.01 95 1012.1
20260904102758 52 232 0.0 0.0 0.01 0.22 0.01 95 1012.1
20260904102726 52 232 0.0 0.0 0.01 0.22 0.01 95 1012.1
20260904102254 52 233 0.0 0.0 0.00 0.21 0.00 95 1012.1
20260904101808 53 233 0.0 0.0 0.00 0.21 0.00 95 1012.1
20260904101224 53 233 0.0 0.0 0.00 0.21 0.00 95 1012.2
20260904100730 53 232 0.0 0.0 0.00 0.21 0.00 95 1012.1
20260904100232 53 233 0.0 0.0 0.00 0.21 0.00 95 1012.0
20260904095759 53 232 0.0 0.0 0.00 0.21 0.00 95 1011.9
20260904095235 53 233 0.0 0.0 0.00 0.21 0.00 95 1012.0
20260904094725 53 233 0.0 0.0 0.00 0.21 0.00 95 1012.0
20260904094232 53 233 0.0 0.0 0.00 0.21 0.00 95 1012.0
20260904093739 53 233 0.0 0.0 0.00 0.21 0.00 95 1012.0
20260904093226 53 232 0.0 0.0 0.00 0.21 0.00 95 1012.0
20260904092813 53 232 0.0 0.0 0.00 0.21 0.00 95 1012.0
20260904092306 53 233 0.0 0.0 0.00 0.21 0.00 95 1012.1
20260904092233 53 233 0.0 0.0 0.00 0.21 0.00 95 1012.1
20260904091740 53 233 0.0 0.0 0.00 0.21 0.00 95 1012.0
20260904091226 53 232 0.0 0.0 0.00 0.21 0.00 95 1012.0
20260904090733 53 232 0.0 0.0 0.00 0.21 0.00 95 1012.1
20260904090220 53 232 0.0 0.0 0.01 0.21 0.00 95 1012.0
20260904085727 53 233 0.0 0.0 0.01 0.21 0.00 95 1012.1
20260904085235 53 232 0.0 1.7 0.01 0.21 0.00 95 1012.0
20260904084725 53 163 0.0 1.7 0.01 0.21 0.00 95 1012.1
20260904084232 53 163 0.0 1.7 0.01 0.21 0.00 95 1012.1
20260904083734 53 163 0.9 1.7 0.01 0.21 0.00 95 1012.1
20260904083221 53 163 0.0 0.0 0.01 0.21 0.00 95 1012.2
20260904082736 53 163 0.0 0.9 0.01 0.21 0.00 95 1012.2
20260904082225 53 163 0.0 0.9 0.01 0.21 0.00 95 1012.2
20260904081810 53 163 0.9 0.9 0.01 0.22 0.21 95 1012.1
20260904081739 53 163 0.9 0.9 0.01 0.22 0.21 95 1012.1
20260904081306 53 163 0.9 1.7 0.01 0.22 0.21 95 1011.9
20260904081234 53 163 0.9 1.7 0.01 0.22 0.21 95 1011.9
20260904080720 53 259 0.0 1.7 0.00 0.21 0.20 95 1011.9
20260904080308 53 260 0.9 1.7 0.00 0.21 0.20 95 1011.7
20260904075724 53 90 0.9 1.7 0.00 0.21 0.20 95 1011.8
20260904075232 53 90 0.0 0.0 0.00 0.21 0.20 95 1012.1
20260904074738 53 90 0.0 0.0 0.00 0.21 0.20 95 1012.0
20260904074224 53 90 0.0 0.0 0.00 0.21 0.20 95 1012.1
20260904073731 53 90 0.0 0.0 0.00 0.21 0.20 95 1012.1
20260904073258 53 90 0.0 0.0 0.00 0.21 0.20 94 1012.1
20260904073226 53 90 0.0 0.0 0.00 0.21 0.20 94 1012.1
20260904072753 53 90 0.0 0.0 0.00 0.21 0.20 95 1012.2
20260904072233 53 90 0.0 0.0 0.00 0.21 0.20 95 1012.3
20260904071739 53 90 0.0 0.0 0.01 0.21 0.20 95 1012.3
20260904071226 54 90 0.0 0.0 0.01 0.21 0.20 94 1012.3
20260904070721 54 90 0.0 0.0 0.01 0.21 0.20 95 1012.3
20260904070228 54 90 0.0 0.0 0.01 0.21 0.20 95 1012.3
20260904065735 54 90 0.0 0.0 0.01 0.21 0.20 95 1012.2
20260904065306 54 90 0.0 0.0 0.01 0.21 0.20 94 1012.3
20260904064738 54 90 0.0 0.0 0.01 0.21 0.20 94 1012.2
20260904064225 54 90 0.0 0.0 0.01 0.21 0.20 95 1012.3
20260904063727 54 90 0.0 0.0 0.01 0.21 0.20 95 1012.3
20260904063234 54 90 0.0 0.0 0.01 0.21 0.20 94 1012.2
20260904062802 54 90 0.0 0.0 0.01 0.21 0.20 94 1012.2
20260904062730 54 90 0.0 0.0 0.01 0.21 0.20 94 1012.2
20260904062238 54 90 0.0 0.0 0.01 0.21 0.20 95 1012.2
20260904061728 54 90 0.0 0.0 0.00 0.20 0.19 95 1012.2
20260904061235 54 102 0.0 0.0 0.00 0.20 0.19 95 1012.2
20260904060723 54 69 0.0 0.0 0.00 0.20 0.19 95 1012.2
20260904060310 54 69 0.0 0.0 0.00 0.20 0.19 94 1012.2
20260904060238 54 69 0.0 0.0 0.00 0.20 0.19 94 1012.2
20260904055725 54 69 0.0 0.0 0.00 0.20 0.19 94 1012.1
20260904055234 54 69 0.0 0.0 0.00 0.20 0.19 94 1012.1
20260904054800 54 69 0.0 0.0 0.01 0.20 0.19 94 1012.0
20260904054257 54 69 0.0 0.0 0.01 0.20 0.19 94 1012.0
20260904053752 54 69 0.0 0.0 0.01 0.20 0.19 94 1012.0
20260904053720 54 69 0.0 0.0 0.01 0.20 0.19 94 1012.0
20260904053307 54 69 0.0 0.0 0.01 0.20 0.19 94 1012.1
20260904053235 54 69 0.0 0.0 0.01 0.20 0.19 94 1012.1
20260904052803 54 69 0.0 0.0 0.01 0.20 0.19 94 1012.0
20260904052240 54 69 0.0 0.0 0.01 0.20 0.19 94 1012.0
20260904051725 54 69 0.0 0.0 0.01 0.20 0.19 94 1011.9
20260904051232 54 69 0.0 0.0 0.01 0.20 0.19 94 1012.0
20260904050759 54 69 0.0 0.0 0.01 0.20 0.19 94 1011.9
20260904050727 54 69 0.0 0.0 0.01 0.20 0.19 94 1011.9
20260904050234 54 69 0.0 0.0 0.01 0.20 0.19 94 1012.0
20260904045802 54 69 0.0 0.0 0.01 0.20 0.19 94 1012.1
20260904045238 54 69 0.0 0.0 0.01 0.20 0.19 94 1012.1
20260904044724 54 69 0.0 0.0 0.00 0.19 0.18 94 1012.1
20260904044235 54 69 0.0 0.0 0.01 0.19 0.18 94 1012.1
20260904043722 54 69 0.0 0.0 0.01 0.19 0.18 94 1012.0
20260904043229 54 69 0.0 0.0 0.01 0.19 0.18 94 1012.1
20260904042736 54 69 0.0 0.0 0.01 0.19 0.18 94 1012.1
20260904042225 54 69 0.0 0.0 0.01 0.19 0.18 94 1012.1
20260904041730 54 69 0.0 0.0 0.01 0.19 0.18 94 1012.1
20260904041257 54 69 0.0 0.0 0.01 0.19 0.18 94 1012.0
20260904040732 54 69 0.0 0.0 0.01 0.19 0.18 94 1011.9
20260904040300 54 69 0.0 0.0 0.02 0.19 0.18 94 1011.8
20260904035735 54 69 0.0 0.0 0.02 0.19 0.18 94 1011.7
20260904035223 54 69 0.0 0.0 0.02 0.19 0.18 94 1011.7
20260904034729 54 69 0.0 0.0 0.02 0.19 0.18 93 1011.7
20260904034220 54 69 0.0 0.0 0.01 0.18 0.17 93 1011.7
20260904033727 54 69 0.0 0.0 0.01 0.18 0.17 93 1011.6
20260904033233 55 69 0.0 0.0 0.01 0.18 0.17 93 1011.7
20260904032720 55 69 0.0 1.7 0.02 0.18 0.17 93 1011.6
20260904032309 55 69 0.0 1.7 0.02 0.18 0.17 93 1011.5
20260904031723 55 69 0.0 0.9 0.02 0.18 0.17 93 1011.5
20260904031230 55 69 0.0 1.7 0.02 0.18 0.17 93 1011.5
20260904030737 55 69 0.9 1.7 0.02 0.18 0.17 94 1011.6
20260904030224 55 130 0.0 0.9 0.02 0.17 0.16 94 1011.5
20260904025731 55 244 0.0 0.0 0.02 0.17 0.16 93 1011.3
20260904025223 55 243 0.0 0.0 0.02 0.17 0.16 93 1011.4
20260904024729 55 243 0.0 0.0 0.02 0.17 0.16 93 1011.3
20260904024236 55 243 0.0 0.0 0.03 0.17 0.16 93 1011.4
20260904023803 55 243 0.0 0.0 0.03 0.17 0.16 93 1011.4
20260904023238 55 243 0.0 0.0 0.03 0.17 0.16 93 1011.5
20260904022725 55 243 0.0 0.9 0.03 0.16 0.15 92 1011.4
20260904022234 55 244 0.0 0.9 0.03 0.16 0.15 92 1011.3
20260904021739 55 242 0.0 0.9 0.03 0.16 0.15 92 1011.2
20260904021306 55 243 0.0 0.9 0.04 0.16 0.15 92 1011.3
20260904021234 55 243 0.0 0.9 0.04 0.16 0.15 92 1011.3
20260904020721 56 242 0.0 1.7 0.03 0.15 0.14 92 1011.3
20260904020228 56 243 0.0 1.7 0.03 0.15 0.14 92 1011.3
20260904015810 56 243 0.0 1.7 0.03 0.15 0.14 92 1011.3
20260904015226 56 240 0.0 0.0 0.04 0.15 0.14 92 1011.3
20260904014753 56 199 0.0 0.0 0.03 0.14 0.14 92 1011.3
20260904014228 56 230 0.0 0.0 0.03 0.14 0.13 92 1011.3
20260904013755 56 242 0.0 0.0 0.03 0.14 0.13 92 1011.4
20260904013723 56 242 0.0 0.0 0.03 0.14 0.13 92 1011.4
20260904013310 56 242 0.0 0.0 0.03 0.14 0.13 92 1011.5
20260904013238 56 242 0.0 0.0 0.03 0.14 0.13 92 1011.5
20260904012805 56 248 0.0 0.0 0.02 0.13 0.12 92 1011.6
20260904012306 56 248 0.0 0.0 0.02 0.13 0.12 91 1011.7
20260904012231 56 248 0.0 0.0 0.02 0.13 0.12 91 1011.7
20260904011720 56 192 0.0 0.0 0.02 0.19 0.12 91 1011.5
20260904011227 56 192 0.0 0.0 0.01 0.18 0.11 89 1011.6
20260904010734 56 192 0.0 0.9 0.01 0.18 0.11 88 1011.6
20260904010220 57 192 0.9 1.7 0.01 0.18 0.11 85 1011.6
20260904005727 58 248 0.0 1.7 0.00 0.17 0.10 84 1011.4
20260904005255 59 248 0.0 5.2 0.00 0.17 0.10 81 1011.4
20260904005223 59 248 0.0 5.2 0.00 0.17 0.10 81 1011.4
20260904004729 61 296 0.9 5.2 0.00 0.17 0.10 76 1011.3
20260904004236 63 251 2.6 5.2 0.00 0.17 0.10 73 1011.3
20260904003723 63 240 0.9 1.7 0.00 0.17 0.10 72 1011.1
20260904003230 64 70 0.0 1.7 0.00 0.17 0.10 68 1010.9
20260904002737 64 54 0.0 2.6 0.00 0.17 0.10 68 1010.7
20260904002229 64 48 0.0 4.3 0.00 0.17 0.10 68 1010.6
20260904001735 64 39 1.7 4.3 0.00 0.17 0.10 68 1010.6
20260904001302 64 81 1.7 4.3 0.00 0.17 0.10 67 1010.7
20260904000736 64 83 2.6 4.3 0.00 0.17 0.10 68 1010.9
20260904000303 64 58 0.9 4.3 0.00 0.17 0.10 68 1010.9
20260903235739 64 58 0.0 4.3 0.00 0.17 0.10 67 1010.8
20260903235227 65 88 0.9 3.5 0.00 0.17 0.10 67 1010.8